FW7290 Weather Reports


Display with metric or nautical units.
time (UTC)temp
F
wind
direction
speed
MPH
gust
MPH
rain 1hr
in
rain 24hr
in
rain mn
in
humidity
%
barometer
mb
20210801071453 61 287 0.0 0.0 0.00 0.00 0.00 76 1013.1
20210801070952 61 287 0.0 0.0 0.00 0.00 0.00 76 1013.0
20210801070450 61 287 0.0 0.0 0.00 0.00 0.00 76 1012.9
20210801065949 61 287 0.0 0.0 0.00 0.00 0.00 76 1013.0
20210801065448 60 282 1.0 1.0 0.00 0.00 0.00 77 1012.8
20210801064946 61 280 0.0 0.0 0.00 0.00 0.00 77 1013.0
20210801064444 61 280 0.0 0.0 0.00 0.00 0.00 76 1013.1
20210801063940 60 281 0.0 0.0 0.00 0.00 0.00 77 1013.2
20210801063439 60 291 0.0 0.0 0.00 0.00 0.00 78 1013.1
20210801062938 60 298 0.0 0.0 0.00 0.00 0.00 78 1013.3
20210801062438 60 318 0.0 0.0 0.00 0.00 0.00 78 1013.2
20210801061937 60 323 0.0 0.0 0.00 0.00 0.00 78 1013.1
20210801061437 61 322 0.0 0.0 0.00 0.00 0.00 78 1013.2
20210801060935 61 301 0.0 0.0 0.00 0.00 0.00 77 1013.5
20210801060434 61 269 0.0 0.0 0.00 0.00 0.00 76 1013.2
20210801055934 61 293 0.0 1.0 0.00 0.00 0.00 76 1013.5
20210801055432 61 276 0.0 0.0 0.00 0.00 0.00 77 1013.4
20210801054931 61 276 0.0 0.0 0.00 0.00 0.00 76 1013.2
20210801054430 61 276 0.0 0.0 0.00 0.00 0.00 75 1013.4
20210801053929 62 276 0.0 0.0 0.00 0.00 0.00 75 1013.5
20210801053429 62 274 0.0 0.0 0.00 0.00 0.00 75 1013.5
20210801052923 62 270 0.0 0.0 0.00 0.00 0.00 74 1013.4
20210801052422 62 260 0.0 0.0 0.00 0.00 0.00 74 1013.6
20210801051921 62 311 0.0 0.0 0.00 0.00 0.00 73 1013.5
20210801051421 62 274 1.0 1.0 0.00 0.00 0.00 73 1013.6
20210801050918 62 284 0.0 0.0 0.00 0.00 0.00 73 1013.7
20210801050417 62 280 0.0 0.0 0.00 0.00 0.00 73 1013.6
20210801045917 62 260 0.0 0.0 0.00 0.00 0.00 74 1013.6
20210801045415 62 246 0.0 0.0 0.00 0.00 0.00 76 1013.7
20210801044914 62 279 1.0 1.0 0.00 0.00 0.00 76 1013.7
20210801044413 62 279 0.0 0.0 0.00 0.00 0.00 75 1013.7
20210801043910 62 280 0.0 0.0 0.00 0.00 0.00 74 1013.5
20210801043409 63 280 0.0 0.0 0.00 0.00 0.00 73 1013.7
20210801042907 63 279 0.0 0.0 0.00 0.00 0.00 72 1013.6
20210801042406 63 280 0.0 0.0 0.00 0.00 0.00 73 1013.5
20210801041904 63 303 0.0 0.0 0.00 0.00 0.00 75 1013.7
20210801041403 63 303 0.0 0.0 0.00 0.00 0.00 74 1013.7
20210801040900 63 303 0.0 0.0 0.00 0.00 0.00 73 1013.6
20210801040359 63 303 0.0 0.0 0.00 0.00 0.00 72 1013.4
20210801035858 64 302 0.0 0.0 0.00 0.00 0.00 72 1013.7
20210801035356 63 323 0.0 0.0 0.00 0.00 0.00 73 1013.6
20210801034855 63 327 0.0 0.0 0.00 0.00 0.00 73 1013.5
20210801034352 63 327 0.0 0.0 0.00 0.00 0.00 72 1013.4
20210801033850 63 327 0.0 0.0 0.00 0.00 0.00 70 1013.3
20210801033351 63 327 0.0 0.0 0.00 0.00 0.00 68 1013.6
20210801032849 64 327 0.0 0.0 0.00 0.00 0.00 68 1013.4
20210801032345 64 327 0.0 0.0 0.00 0.00 0.00 67 1013.5
20210801031845 64 327 0.0 0.0 0.00 0.00 0.00 67 1013.3
20210801031343 64 327 0.0 0.0 0.00 0.00 0.00 67 1013.4
20210801030843 64 326 0.0 0.0 0.00 0.00 0.00 67 1013.3
20210801030342 64 326 0.0 0.0 0.00 0.00 0.00 67 1013.5
20210801025840 64 326 0.0 0.0 0.00 0.00 0.00 67 1013.9
20210801025338 64 326 0.0 0.0 0.00 0.00 0.00 66 1013.7
20210801024837 64 325 0.0 0.0 0.00 0.00 0.00 66 1013.6
20210801024334 63 327 0.0 0.0 0.00 0.00 0.00 67 1013.6
20210801023834 63 20 0.0 0.0 0.00 0.00 0.00 67 1013.5
20210801023331 63 20 0.0 0.0 0.00 0.00 0.00 68 1013.6
20210801022829 63 20 0.0 0.0 0.00 0.00 0.00 68 1013.5
20210801022328 63 20 0.0 0.0 0.00 0.00 0.00 67 1013.8
20210801021828 63 20 0.0 0.0 0.00 0.00 0.00 67 1013.7
20210801021328 63 20 0.0 0.0 0.00 0.00 0.00 67 1013.6
20210801020827 63 20 0.0 0.0 0.00 0.00 0.00 66 1013.5
20210801020327 64 20 0.0 0.0 0.00 0.00 0.00 65 1013.7
20210801015826 64 20 0.0 0.0 0.00 0.00 0.00 64 1013.5
20210801015324 64 20 0.0 0.0 0.00 0.00 0.00 64 1013.6
20210801014824 64 20 0.0 0.0 0.00 0.00 0.00 65 1013.6
20210801014323 64 20 0.0 0.0 0.00 0.00 0.00 64 1014.0
20210801013823 64 20 0.0 0.0 0.00 0.00 0.00 63 1013.7
20210801013321 64 20 0.0 0.0 0.00 0.00 0.00 64 1013.7
20210801012819 64 20 0.0 0.0 0.00 0.00 0.00 64 1013.6
20210801012319 64 20 0.0 0.0 0.00 0.00 0.00 64 1013.5
20210801011819 65 20 0.0 0.0 0.00 0.00 0.00 63 1013.5
20210801011315 65 20 0.0 0.0 0.00 0.00 0.00 62 1013.3
20210801010815 65 20 0.0 0.0 0.00 0.00 0.00 62 1013.3
20210801010310 65 20 0.0 0.0 0.00 0.00 0.00 61 1013.2
20210801005808 65 20 0.0 0.0 0.00 0.00 0.00 61 1013.3
20210801005306 66 20 0.0 0.0 0.00 0.00 0.00 60 1013.6
20210801004802 66 21 0.0 0.0 0.00 0.00 0.00 59 1013.6
20210801004259 66 21 0.0 0.0 0.00 0.00 0.00 58 1013.3
20210801003758 66 21 0.0 0.0 0.00 0.00 0.00 58 1013.2
20210801003257 67 21 0.0 0.0 0.00 0.00 0.00 56 1013.4
20210801002755 67 21 0.0 0.0 0.00 0.00 0.00 56 1013.3
20210801002254 67 19 0.0 0.0 0.00 0.00 0.00 55 1013.4
20210801001753 68 18 0.0 0.0 0.00 0.00 0.00 54 1013.4
20210801001251 69 244 0.0 0.0 0.00 0.00 0.00 53 1013.7
20210801000750 69 242 0.0 0.0 0.00 0.00 0.00 52 1013.4
20210801000249 69 238 1.0 1.0 0.00 0.00 0.00 51 1013.5
20210731235747 69 284 1.0 1.0 0.00 0.00 0.00 51 1013.3
20210731235245 69 283 1.0 1.0 0.00 0.00 0.00 50 1013.3
20210731234741 70 271 0.0 0.0 0.00 0.00 0.00 50 1013.1
20210731234238 70 210 0.0 0.0 0.00 0.00 0.00 50 1013.0
20210731233734 70 291 1.0 1.0 0.00 0.00 0.00 49 1013.1
20210731233234 70 207 0.0 1.0 0.00 0.00 0.00 48 1012.9
20210731232732 71 291 0.0 1.0 0.00 0.00 0.00 47 1013.0
20210731232230 71 276 0.0 1.0 0.00 0.00 0.00 47 1013.0
20210731231727 72 298 1.0 1.0 0.00 0.00 0.00 45 1013.0
20210731231226 72 228 1.0 2.0 0.00 0.00 0.00 44 1012.8
20210731230725 72 193 3.0 5.0 0.00 0.00 0.00 44 1013.1
20210731230224 72 189 2.0 2.0 0.00 0.00 0.00 44 1012.9
20210731225722 73 241 2.0 5.0 0.00 0.00 0.00 43 1013.0
20210731225222 72 222 1.0 2.0 0.00 0.00 0.00 43 1012.9
20210731224721 73 254 2.0 2.0 0.00 0.00 0.00 42 1013.0
20210731224219 74 134 1.0 2.0 0.00 0.00 0.00 41 1013.0
20210731223718 73 249 1.0 1.0 0.00 0.00 0.00 43 1013.1
20210731223216 73 252 2.0 3.0 0.00 0.00 0.00 42 1013.1
20210731222716 73 309 4.0 6.0 0.00 0.00 0.00 43 1013.0
20210731222214 74 225 1.0 1.0 0.00 0.00 0.00 42 1012.9
20210731221711 74 272 2.0 2.0 0.00 0.00 0.00 42 1013.2
20210731221211 73 356 1.0 2.0 0.00 0.00 0.00 45 1013.3
20210731220710 73 96 0.0 1.0 0.00 0.00 0.00 45 1013.1
20210731220201 73 243 2.0 3.0 0.00 0.00 0.00 44 1013.2
20210731215700 73 276 1.0 2.0 0.00 0.00 0.00 44 1013.4
20210731215158 73 302 1.0 2.0 0.00 0.00 0.00 43 1013.2
20210731214657 75 234 2.0 2.0 0.00 0.00 0.00 40 1013.2
20210731214153 75 195 0.0 0.0 0.00 0.00 0.00 42 1013.1
20210731213653 75 300 0.0 1.0 0.00 0.00 0.00 42 1013.2
20210731213150 75 225 3.0 3.0 0.00 0.00 0.00 41 1013.3
20210731212648 74 347 0.0 0.0 0.00 0.00 0.00 41 1013.5
20210731212148 74 251 0.0 1.0 0.00 0.00 0.00 42 1013.3
20210731211648 75 295 2.0 2.0 0.00 0.00 0.00 41 1013.5
20210731211146 75 287 2.0 2.0 0.00 0.00 0.00 42 1013.5
20210731210646 74 257 2.0 2.0 0.00 0.00 0.00 43 1013.7
20210731210146 75 195 4.0 5.0 0.00 0.00 0.00 42 1013.4
20210731205644 74 281 0.0 0.0 0.00 0.00 0.00 42 1013.6
20210731205144 75 199 1.0 2.0 0.00 0.00 0.00 42 1013.6
20210731204643 75 117 3.0 3.0 0.00 0.00 0.00 42 1013.6
20210731204141 75 284 2.0 2.0 0.00 0.00 0.00 43 1013.6
20210731203640 75 236 2.0 2.0 0.00 0.00 0.00 42 1013.6
20210731203139 75 270 1.0 2.0 0.00 0.00 0.00 43 1013.5
20210731202637 75 239 0.0 1.0 0.00 0.00 0.00 42 1013.5
20210731202136 75 249 2.0 3.0 0.00 0.00 0.00 43 1013.7
20210731201636 74 296 0.0 1.0 0.00 0.00 0.00 44 1013.8
20210731201134 74 242 1.0 1.0 0.00 0.00 0.00 43 1013.7
20210731200632 73 240 2.0 2.0 0.00 0.00 0.00 44 1013.6
20210731200130 73 299 1.0 1.0 0.00 0.00 0.00 45 1013.7
20210731195630 74 334 1.0 1.0 0.00 0.00 0.00 46 1013.9
20210731195128 74 313 3.0 5.0 0.00 0.00 0.00 42 1013.5
20210731194626 74 271 3.0 5.0 0.00 0.00 0.00 44 1013.7
20210731194125 74 307 1.0 2.0 0.00 0.00 0.00 42 1013.8
20210731193624 75 296 5.0 6.0 0.00 0.00 0.00 42 1013.6
20210731193123 74 230 2.0 2.0 0.00 0.00 0.00 42 1013.6
20210731192620 75 283 1.0 1.0 0.00 0.00 0.00 44 1013.5
20210731192120 75 285 3.0 6.0 0.00 0.00 0.00 41 1013.6
20210731191618 75 259 2.0 2.0 0.00 0.00 0.00 42 1013.7
20210731191116 75 275 1.0 1.0 0.00 0.00 0.00 41 1013.5
20210731190616 74 298 2.0 2.0 0.00 0.00 0.00 43 1013.8
20210731190114 73 247 3.0 3.0 0.00 0.00 0.00 42 1013.8
20210731185613 72 310 1.0 1.0 0.00 0.00 0.00 44 1013.8
20210731185111 73 249 2.0 2.0 0.00 0.00 0.00 41 1013.7
20210731184610 76 332 0.0 1.0 0.00 0.00 0.00 42 1014.0
20210731184108 75 171 1.0 1.0 0.00 0.00 0.00 42 1014.0
20210731183608 75 294 5.0 6.0 0.00 0.00 0.00 40 1013.9
20210731183106 75 326 0.0 0.0 0.00 0.00 0.00 44 1013.9
20210731182605 74 299 2.0 5.0 0.00 0.00 0.00 41 1013.7
20210731182103 73 41 0.0 0.0 0.00 0.00 0.00 44 1013.8
20210731181559 74 277 0.0 1.0 0.00 0.00 0.00 40 1013.7
20210731181059 75 38 0.0 0.0 0.00 0.00 0.00 43 1014.0
20210731180558 74 8 0.0 0.0 0.00 0.00 0.00 43 1013.8
20210731180057 73 159 2.0 2.0 0.00 0.00 0.00 42 1014.0
20210731175557 73 258 3.0 3.0 0.00 0.00 0.00 43 1013.8
20210731175055 73 253 1.0 2.0 0.00 0.00 0.00 45 1014.0
20210731174553 73 296 0.0 0.0 0.00 0.00 0.00 40 1013.9
20210731174051 73 252 1.0 1.0 0.00 0.00 0.00 43 1014.1
20210731173550 72 220 0.0 0.0 0.00 0.00 0.00 43 1014.3
20210731173047 73 236 3.0 6.0 0.00 0.00 0.00 41 1014.1
20210731172545 73 345 0.0 0.0 0.00 0.00 0.00 46 1014.1
20210731172046 72 283 3.0 3.0 0.00 0.00 0.00 42 1014.5
20210731171541 72 118 0.0 1.0 0.00 0.00 0.00 42 1014.4
20210731171041 71 238 1.0 1.0 0.00 0.00 0.00 45 1014.2
20210731170538 72 198 1.0 2.0 0.00 0.00 0.00 41 1014.4
20210731170037 71 39 1.0 2.0 0.00 0.00 0.00 44 1014.6
20210731165535 72 225 0.0 1.0 0.00 0.00 0.00 43 1014.6
20210731165035 71 279 3.0 3.0 0.00 0.00 0.00 44 1014.7
20210731164534 70 288 1.0 1.0 0.00 0.00 0.00 46 1014.7
20210731164033 68 291 1.0 1.0 0.00 0.00 0.00 50 1014.6
20210731163531 69 221 2.0 2.0 0.00 0.00 0.00 45 1014.8
20210731163029 70 98 0.0 0.0 0.00 0.00 0.00 45 1014.7
20210731162529 71 228 1.0 1.0 0.00 0.00 0.00 44 1014.8
20210731162027 71 272 1.0 2.0 0.00 0.00 0.00 45 1014.9
20210731161525 70 297 0.0 0.0 0.00 0.00 0.00 47 1014.7
20210731161024 70 266 0.0 1.0 0.00 0.00 0.00 48 1014.9
20210731160522 71 273 2.0 2.0 0.00 0.00 0.00 44 1015.1
20210731160021 70 123 2.0 3.0 0.00 0.00 0.00 45 1015.1
20210731155521 69 205 1.0 1.0 0.00 0.00 0.00 49 1015.0
20210731155019 68 346 0.0 0.0 0.00 0.00 0.00 49 1015.4
20210731154518 68 156 0.0 0.0 0.00 0.00 0.00 53 1015.1
20210731154017 69 254 3.0 3.0 0.00 0.00 0.00 50 1015.0
20210731153515 68 245 1.0 2.0 0.00 0.00 0.00 53 1015.0
20210731153015 69 223 0.0 0.0 0.00 0.00 0.00 51 1015.3
20210731152513 69 125 0.0 1.0 0.00 0.00 0.00 50 1015.2
20210731152013 69 266 3.0 3.0 0.00 0.00 0.00 50 1015.1
20210731151511 69 236 0.0 0.0 0.00 0.00 0.00 51 1015.2
20210731151009 68 320 0.0 0.0 0.00 0.00 0.00 52 1015.4
20210731150506 68 256 2.0 3.0 0.00 0.00 0.00 52 1015.2
20210731150006 67 70 0.0 0.0 0.00 0.00 0.00 53 1015.5
20210731145503 67 178 0.0 0.0 0.00 0.00 0.00 54 1015.3
20210731145000 65 133 0.0 0.0 0.00 0.00 0.00 54 1015.2
20210731144500 66 225 2.0 3.0 0.00 0.00 0.00 54 1015.5
20210731143959 66 152 0.0 0.0 0.00 0.00 0.00 56 1015.4
20210731143457 66 86 0.0 1.0 0.00 0.00 0.00 55 1015.6
20210731142955 66 235 1.0 2.0 0.00 0.00 0.00 56 1015.6
20210731142454 65 205 2.0 2.0 0.00 0.00 0.00 55 1015.7
20210731141952 65 130 0.0 0.0 0.00 0.00 0.00 56 1015.7
20210731141450 65 179 1.0 2.0 0.00 0.00 0.00 56 1015.6
20210731140948 64 238 2.0 3.0 0.00 0.00 0.00 57 1015.8
20210731140447 64 212 2.0 2.0 0.00 0.00 0.00 58 1015.5
20210731135946 64 209 0.0 0.0 0.00 0.00 0.00 61 1015.4
20210731135445 63 158 0.0 0.0 0.00 0.00 0.00 59 1015.4
20210731134944 63 244 0.0 0.0 0.00 0.00 0.00 59 1015.7
20210731134443 63 234 3.0 3.0 0.00 0.00 0.00 58 1015.3
20210731133942 63 55 0.0 0.0 0.00 0.00 0.00 61 1015.6
20210731133440 63 190 1.0 1.0 0.00 0.00 0.00 59 1015.5
20210731132939 62 249 0.0 0.0 0.00 0.00 0.00 62 1015.4
20210731132438 62 215 0.0 0.0 0.00 0.00 0.00 63 1015.6
20210731131937 62 215 1.0 1.0 0.00 0.00 0.00 63 1015.4
20210731131435 61 248 0.0 0.0 0.00 0.00 0.00 64 1015.3
20210731130933 61 247 2.0 3.0 0.00 0.00 0.00 63 1015.4
20210731130432 61 228 1.0 1.0 0.00 0.00 0.00 63 1015.6
20210731125932 61 283 2.0 2.0 0.00 0.00 0.00 64 1015.5
20210731125432 60 250 0.0 1.0 0.00 0.00 0.00 65 1015.4
20210731124930 60 90 1.0 2.0 0.00 0.00 0.00 66 1015.5
20210731124428 60 354 0.0 0.0 0.00 0.00 0.00 68 1015.4
20210731123921 60 263 3.0 7.0 0.00 0.00 0.00 66 1015.3
20210731123421 59 222 3.0 3.0 0.00 0.00 0.00 67 1015.5
20210731122918 59 214 3.0 5.0 0.00 0.00 0.00 68 1015.4
20210731122416 59 241 3.0 5.0 0.00 0.00 0.00 68 1015.5
20210731121913 58 299 1.0 2.0 0.00 0.00 0.00 70 1015.5
20210731121412 58 97 1.0 2.0 0.00 0.00 0.00 70 1015.6
20210731120911 57 286 3.0 3.0 0.00 0.00 0.00 71 1015.5
20210731120409 57 254 3.0 5.0 0.00 0.00 0.00 71 1015.4
20210731115907 57 175 1.0 1.0 0.00 0.00 0.00 72 1015.4
20210731115407 57 226 1.0 2.0 0.00 0.00 0.00 73 1015.4
20210731114907 57 257 2.0 2.0 0.00 0.00 0.00 73 1015.5
20210731114405 56 193 1.0 1.0 0.00 0.00 0.00 73 1015.5
20210731113905 56 242 1.0 2.0 0.00 0.00 0.00 74 1015.6
20210731113402 56 256 1.0 2.0 0.00 0.00 0.00 75 1015.3
20210731112900 55 180 1.0 2.0 0.00 0.00 0.00 75 1015.5
20210731112357 55 190 1.0 1.0 0.00 0.00 0.00 76 1015.3
20210731111856 55 211 1.0 2.0 0.00 0.00 0.00 77 1015.4
20210731111355 55 252 2.0 3.0 0.00 0.00 0.00 78 1015.2
20210731110854 54 295 1.0 1.0 0.00 0.00 0.00 79 1015.2
20210731110352 54 299 0.0 0.0 0.00 0.00 0.00 80 1015.2
20210731105852 54 339 0.0 0.0 0.00 0.00 0.00 80 1015.1
20210731105351 54 91 0.0 1.0 0.00 0.00 0.00 80 1015.4
20210731104849 54 279 0.0 0.0 0.00 0.00 0.00 81 1015.2
20210731104348 54 258 1.0 1.0 0.00 0.00 0.00 80 1015.0
20210731103845 54 230 0.0 1.0 0.00 0.00 0.00 81 1014.8
20210731103343 54 289 2.0 2.0 0.00 0.00 0.00 81 1015.2
20210731102842 54 174 0.0 0.0 0.00 0.00 0.00 82 1014.9
20210731102342 54 233 0.0 0.0 0.00 0.00 0.00 82 1014.9
20210731101841 54 243 0.0 0.0 0.00 0.00 0.00 82 1014.8
20210731101339 54 254 0.0 0.0 0.00 0.00 0.00 82 1014.8
20210731100838 54 51 0.0 0.0 0.00 0.00 0.00 83 1014.7
20210731100336 54 281 1.0 1.0 0.00 0.00 0.00 83 1014.9
20210731095834 53 179 0.0 0.0 0.00 0.00 0.00 84 1014.9
20210731095333 53 179 0.0 0.0 0.00 0.00 0.00 85 1014.7
20210731094832 53 112 0.0 0.0 0.00 0.00 0.00 85 1014.6
20210731094330 53 9 0.0 0.0 0.00 0.00 0.00 85 1014.7
20210731093829 54 9 0.0 0.0 0.00 0.00 0.00 85 1014.7
20210731093329 54 4 0.0 0.0 0.00 0.00 0.00 85 1014.7
20210731092827 54 2 0.0 0.0 0.00 0.00 0.00 84 1014.5
20210731092325 54 105 0.0 0.0 0.00 0.00 0.00 85 1014.7
20210731091822 54 137 0.0 0.0 0.00 0.00 0.00 86 1014.7
20210731091319 54 166 0.0 0.0 0.00 0.00 0.00 86 1014.8
20210731090814 54 213 0.0 0.0 0.00 0.00 0.00 85 1014.7
20210731090313 54 82 0.0 0.0 0.00 0.00 0.00 85 1014.7
20210731085812 54 67 0.0 0.0 0.00 0.00 0.00 85 1014.4
20210731085310 54 281 0.0 0.0 0.00 0.00 0.00 84 1014.4
20210731084811 55 271 0.0 0.0 0.00 0.00 0.00 84 1014.5
20210731084308 55 251 0.0 0.0 0.00 0.00 0.00 84 1014.5
20210731083806 55 194 0.0 0.0 0.00 0.00 0.00 84 1014.6
20210731083307 55 243 0.0 0.0 0.00 0.00 0.00 84 1014.4
20210731082804 55 269 0.0 0.0 0.00 0.00 0.00 83 1014.5
20210731082305 55 193 0.0 0.0 0.00 0.00 0.00 84 1014.4
20210731081803 55 176 0.0 1.0 0.00 0.00 0.00 84 1014.4
20210731081303 55 142 0.0 0.0 0.00 0.00 0.00 84 1014.3
20210731080802 55 163 0.0 0.0 0.00 0.00 0.00 84 1014.3
20210731080300 55 127 0.0 0.0 0.00 0.00 0.00 84 1014.1
20210731075757 55 128 0.0 0.0 0.00 0.00 0.00 84 1014.0
20210731075255 55 201 0.0 0.0 0.00 0.00 0.00 84 1014.4
20210731074754 55 112 0.0 0.0 0.00 0.00 0.00 83 1014.1
20210731074252 55 193 0.0 0.0 0.00 0.00 0.00 83 1014.3
20210731073750 56 281 0.0 0.0 0.00 0.00 0.00 83 1014.3
20210731073247 56 230 0.0 0.0 0.00 0.00 0.00 82 1014.3
20210731072745 56 241 0.0 0.0 0.00 0.00 0.00 82 1014.3
20210731072245 56 267 0.0 0.0 0.00 0.00 0.00 81 1014.1
20210731071743 56 225 0.0 0.0 0.00 0.00 0.00 81 1014.0